P/2011 V1 ( Boattini ) 2026

Japanese version
Home page
Updated on August 11, 2025

---------------------------------------------------------------------

* Profile

* Orbital Elements

Epoch 2023 Sept. 13.0 TT = JDT 2460200.5                                        
T 2026 Apr. 23.23752 TT                                 Rudenko                 
q   1.7387757            (2000.0)            P               Q                  
n   0.13023347     Peri.  269.69191     +0.71542552     +0.69244504             
a   3.8546738      Node    46.48155     -0.57897273     +0.66221095             
e   0.5489176      Incl.    7.38432     -0.39109705     +0.28635034             
P   7.57                                                                        
>From 26 observations 2011 Oct. 20-Nov. 20, mean residual 0".2.                  

* Magnitudes Graph

        m1 = 15.5 + 5 log d + 10.0 log r

---------------------------------------------------------------------

The orbital elements are published on M.P.E.C. 2023-U276.
The magnitudes graphs are made with Comet for Windows.

---------------------------------------------------------------------

Copyright(C) Seiichi Yoshida (comet@aerith.net). All rights reserved.